This demonstration page uses our WeatherBlox Daily Observations layout. Learn more.

Left ArrowRight Arrow

44.8408, -93.29828

Hourly Observations for February 26, 2019

Temp ( °F °C ) Dew Point ( °F °C ) Humidity (%) Winds ( mph kmh ) Pressure ( in mb ) Visibility ( mi km ) Precip ( " mm )
12:53 am 00:53 Cloudy 2 -16.7 -11 -23.9 54 54 N 7 11 30.66 1038 10 16 0.00 0.00
1:53 am 01:53 Mostly Cloudy 2 -16.7 -12 -24.4 52 52 NNE 10 17 30.67 1039 10 16 0.00 0.03
2:53 am 02:53 Mostly Clear 1 -17.2 -12 -24.4 54 54 N 8 13 30.67 1039 10 16 0.00 0.00
3:53 am 03:53 Cloudy 1 -17.2 -13 -25 51 51 NE 8 13 30.65 1038 10 16 0.00 0.00
4:53 am 04:53 Cloudy 0 -17.8 -14 -25.6 51 51 ENE 6 9 30.65 1038 10 16 0.00 0.00
5:53 am 05:53 Cloudy 0 -17.8 -14 -25.6 51 51 NE 9 15 30.65 1038 10 16 0.00 0.00
6:53 am 06:53 Cloudy 0 -17.8 -13 -25 54 54 ENE 7 11 30.63 1037 10 16 0.00 0.00
7:53 am 07:53 Cloudy 0 -17.8 -14 -25.6 51 51 E 7 11 30.64 1038 10 16 0.00 0.00
8:53 am 08:53 Cloudy 1 -17.2 -14 -25.6 48 48 ENE 6 9 30.65 1038 10 16 0.00 0.00
9:53 am 09:53 Cloudy 2 -16.7 -13 -25 49 49 ENE 7 11 30.64 1038 10 16 0.00 0.00
10:24 am 10:24 Cloudy with Light Snow 2 -16.7 -10 -23.3 57 57 ENE 8 13 30.67 1039 3 4 0.00 0.03
10:40 am 10:40 Cloudy with Light Snow 2 -16.7 -7 -21.7 65 65 ENE 7 11 30.68 1039 2 2 0.00 0.03
10:53 am 10:53 Cloudy with Light Snow 2 -16.7 -6 -21.1 69 69 ENE 7 11 30.64 1038 2 2 0.01 0.25
11:11 am 11:11 Cloudy with Light Snow 2 -16.7 -5 -20.6 72 72 ENE 7 11 30.69 1039 1 2 0.00 0.03
11:25 am 11:25 Cloudy with Light Snow 2 -16.7 -4 -20 76 76 ENE 7 11 30.69 1039 1 2 0.01 0.25
11:32 am 11:32 Cloudy with Light Snow 2 -16.7 -4 -20 76 76 ENE 8 13 30.68 1039 2 2 0.01 0.25
11:46 am 11:46 Cloudy with Light Snow 3 -16.1 -4 -20 72 72 E 8 13 30.67 1039 3 5 0.01 0.25
11:53 am 11:53 Cloudy with Light Snow 3 -16.1 -4 -20 72 72 ENE 8 13 30.63 1037 2 2 0.01 0.25
12:13 pm 12:13 Cloudy with Light Snow 4 -15.6 -3 -19.4 73 73 E 8 13 30.66 1038 2 2 0.01 0.25
12:34 pm 12:34 Cloudy with Light Snow 4 -15.6 -2 -18.9 76 76 ENE 8 13 30.65 1038 1 2 0.01 0.25
12:53 pm 12:53 Cloudy with Light Snow 4 -15.6 -2 -18.9 76 76 ENE 7 11 30.60 1036 1 2 0.02 0.51
1:53 pm 13:53 Cloudy with Light Snow 6 -14.4 -1 -18.3 73 73 ENE 8 13 30.58 1035 2 3 0.01 0.25
2:20 pm 14:20 Cloudy with Light Snow 7 -13.9 -1 -18.3 70 70 NE 7 11 30.60 1036 8 13 0.00 0.03
2:25 pm 14:25 Cloudy with Light Snow 7 -13.9 -1 -18.3 70 70 ENE 9 15 30.60 1036 8 13 0.00 0.03
2:53 pm 14:53 Cloudy with Light Snow 7 -13.9 0 -17.8 73 73 E 9 15 30.55 1035 9 14 0.00 0.03
3:53 pm 15:53 Cloudy 8 -13.3 0 -17.8 69 69 ENE 10 17 30.52 1033 9 14 0.00 0.03
4:53 pm 16:53 Cloudy 8 -13.3 0 -17.8 69 69 ENE 9 15 30.50 1033 10 16 0.00 0.00
5:53 pm 17:53 Cloudy with Light Snow 8 -13.3 0 -17.8 69 69 ENE 8 13 30.50 1033 9 14 0.00 0.03
6:53 pm 18:53 Cloudy with Light Snow 8 -13.3 0 -17.8 69 69 ENE 9 15 30.48 1032 4 6 0.00 0.03
7:53 pm 19:53 Cloudy with Light Snow 8 -13.3 1 -17.2 73 73 NE 10 17 30.48 1032 5 8 0.00 0.03
8:53 pm 20:53 Cloudy with Light Snow 8 -13.3 1 -17.2 73 73 E 9 15 30.45 1031 5 8 0.00 0.03
9:53 pm 21:53 Cloudy with Light Snow 8 -13.3 1 -17.2 73 73 E 6 9 30.43 1031 7 11 0.00 0.03
10:53 pm 22:53 Cloudy with Light Snow 8 -13.3 2 -16.7 76 76 SE 6 9 30.40 1030 6 10 0.00 0.03
11:25 pm 23:25 Cloudy with Light Snow 8 -13.3 2 -16.7 76 76 NE 5 7 30.44 1031 2 3 0.00 0.03
11:42 pm 23:42 Cloudy with Light Snow 8 -13.3 2 -16.7 76 76 NE 5 7 30.43 1030 3 5 0.00 0.03
11:53 pm 23:53 Cloudy with Light Snow 7 -13.9 2 -16.7 80 80 Calm 30.39 1029 3 5 0.00 0.03

Powered by AerisWeather